{"data":{"norad_id":57250,"epoch":"2026-09-20T13:26:24.353376Z","epoch_age_seconds":119126,"freshness":"FRESH","line1":"1 57250U 23094AJ  26263.56000409  .00000477  00000+0  26855-4 0  9997","line2":"2 57250  43.0030 359.2979 0001300 269.6951  90.3752 15.27575051177040","mean_motion":15.27575051,"eccentricity":0.00013,"inclination_deg":43.003,"raan_deg":359.2979,"arg_perigee_deg":269.6951,"mean_anomaly_deg":90.3752,"bstar":2.6855e-5,"rev_number":17704,"period_min":94.267054116741,"perigee_km":482.17195904708,"apogee_km":483.95587128503,"semimajor_km":6861.2009151661,"source":"CELESTRAK","updated_at":"2026-09-21T09:00:33.590928Z"}}